Погода Нижний Тагил

Хотите узнать прогноз погоды Нижний Тагил? Тогда Вам сюда: Погода Нижний Тагил

Поиск расширенной информации на нашем сайте:

Полезная информация:

Новости сайта



02.01.2020
Опубликован Долгосрочный прогноз погоды по городам России и ближнего зарубежья на январь 2020 года.
Карты: Прогноз на январь и февраль 2020 года, Сравнение прогнозируемой аномалии приземной температуры воздуха на январь 2020 года по разным моделям.




Погода Нижний Тагил - сегодня

Время (UTC), дата Ветер
(°,м/с) 
Видим.   Явления Облачность Т
(°С)
Тd
(°С)
f(%) Тe
(°С)
Pmin
(гПа)
dP
(гПа)
Po
(мм)
O2
(г/м3)
Тmin Tmax R s Состояние
почвы
03 05.03.21 200 (Ю) 4000 м  слаб. снег  10/10 600 м 
[Sc]
-7.2 -8.2 93 -7  988.8  0.7  717  298  -11.4    47  равномерный
сухой снег
100% 
06 05.03.21 260 (З) 5{10}  4000 м  слаб. снег  8/6 600 м средняя 
[Sc diur, vesp|Ac As]
-3.9 -5.7 87 -8  991.8  3.4  720  295           
09 05.03.21 230 (ЮЗ) 5{13}  4000 м  слаб. ливневой снег  10/10 300 м кучево-дожд. 
[Cb cap]
-4 -6.5 83 -8  994.2  2.2  722  296           
12 05.03.21 250 (З) 5{11}  20000 м  позёмок{ливн. осадки, снег}  8/8 600 м кучево-дожд. 
[Cb cap]
-4.8 -10.1 66 -9  996.2  1.7  723  297           
15 05.03.21 250 (З) 20000 м    5/5 600 м 
[Sc]
-7.1 -10.7 75 -11  997.9  1.5  724  300    -3  0.9     
18 05.03.21 270 (З) 20000 м    4/0 средняя 
[Ac lent]
-8.6 -11.6 79 -12  999.7  1.2  725  303           
21 05.03.21 270 (З) 4{10}  20000 м    ясно 
-10.4 -13.4 79 -14  1002.1  2.1  727  306           
00 06.03.21 250 (З) 20000 м    ясно 
-13.5 -14.8 90 -17  1004.1  1.5  728  310           
03 06.03.21 230 (ЮЗ) 20000 м    3/3 600 м 
[Sc]
-14.4 -15.9 88 -17  1005  0.8  728  311  -14.5      46  равномерный
сухой снег
100% 
06 06.03.21 240 (ЮЗ) 20000 м  в посл. час снег  8/4 600 м средняя 
[Sc|Ac trans]
-10.3 -13.4 78 -14  1004.5  728  306  -14.7         
09 06.03.21 260 (З) 5-10{11}  20000 м  позёмок{снег}  9/9 600 м 
[Sc]
-9 -15.1 61 -14  1004.9  0.5  729  305           
12 06.03.21 270 (З) 6-10{12}  20000 м  позёмок{снег}  8/8 600 м 
[Sc]
-10.5 -16.2 63 -16  1006.7  1.6  730  307           
15 06.03.21 270 (З) 3{11}  20000 м  позёмок  4/4 600 м 
[Sc]
-13 -16.9 73 -16  1008.9  1.8  731  311    -8.4  0.0     
18 06.03.21 тихо ()   20000 м    ясно 
-17.6 -19.2 87 -18  1010.5  0.8  732  317           
21 06.03.21 130 (ЮВ) 20000 м    ясно 
-19.6 -21.4 86 -20  1010.6  732  319           
00 07.03.21 100 (В) 20000 м    ясно 
-21.9 -24.1 82 -22  1010.9  -0.1  732  322           
03 07.03.21 090 (В) 20000 м    6/4 600 м средняя 
[Sc|Ac trans]
-23.1 -25.5 81 -24  1011.1  732  324  -23.9      45  равномерный
сухой снег
100% 
06 07.03.21 тихо ()   20000 м    8/0 верхняя 
[Ci fib]
-14.2 -16 86 -14  1009.6  -0.2  732  312           
09 07.03.21 310 (СЗ) 20000 м    8/8 600 м 
[Sc]
-10.9 -16.3 64 -14  1007.5  -1.6  731  308           
12 07.03.21 250 (З) 20000 м    8/8 600 м 
[Sc]
-10.2 -15.7 64 -12  1006.4  -1  730  307           
15 07.03.21 100 (В) 20000 м    3/3 600 м 
[Sc]
-16.7 -18.1 89 -17  1007.4  0.1  730  315    -9.6       
18 07.03.21 130 (ЮВ) 20000 м    3/0 средняя 
[Ac trans]
-20.9 -23.2 82 -21  1007.9  -0.1  730  320           
21 07.03.21 110 (В) 20000 м    ясно 
-23 -25.4 81 -23  1008.3  0.2  730  323           
00 08.03.21 140 (ЮВ) 20000 м    ясно 
-24.2 -26.7 80 -25  1008.4  -0.1  730  324           
03 08.03.21 100 (В) 20000 м    8/4 600 м верхняя 
[Sc|Ci fib]
-23.2 -25.7 80 -24  1007.4  -0.7  729  323  -24.6      44  равномерный
сухой снег
100% 
Время (UTC), дата Ветер
(°,м/с) 
Видим.   Явления Облачность Т
(°С)
Тd
(°С)
f(%) Тe
(°С)
Pmin
(гПа)
dP
(гПа)
Po
(мм)
O2
(г/м3)
Тmin Tmax R s Состояние
почвы

Для получения пояснительной информации подведите курсор к названию столбца.

ПОГОДА Нижний Тагил - архив

Всё, что Вы хотите узнать о погоде Нижний Тагил - удобно и подробно!

Выберите нужную дату (начиная с 1 января 2019* года) и нажмите кнопку "Найти".
Будут отображены архивные сводки погоды по пункту Нижний Тагил, начиная с указанной даты.


Отображать данные в формате CSV (для использования в таблицах Excel)


Внимание! Наш архив погоды предназначен исключительно для личного некоммерческого использования в познавательных целях. Если Вам необходимы официальные справки о состоянии погоды (для производственных, юридических, коммерческих и т.п. целей), обращайтесь в органы Росгидромета.

*Примечание: данная дата относится к архиву по метеостанциям СССР (Россия, СНГ, Балтия).
Архив по метеостанциям Зарубежной Европы и Азии (кроме Китая) хранится 10 дней, по другим регионам земного шара (Китай, Африка, Америка, Австралия, Океания) - 1 день.

Нижний Тагил - район местоположения метеостанции


Название, широта, долгота, высота метеостанции:
Нижний Тагил 57.9°ш. 60.1°д. 260 м над ур. моря [Российская Федерация]

Дополнительная информация

В oтличие oт бoльшинства пoгoдных сайтoв мы публикуем пoдрoбную метеoинфoрмацию в детальнoм прoфессиoнальнoм фoрмате.

Характеристики температуры и влажнoсти вoздуха измеряются на высoте 2 м в тени вдали oт зданий и деревьев.
Скoрoсть ветра измеряется на высoте 10 м (на урoвне рoста челoвека скoрoсть ветра ниже в 1.5-2 раза). Если метеoстанция нахoдится в гoрoде или в лесу, тo скoрoсть ветра занижена на 2-4 м/с пo сравнению с oткрытым местoм. Скoрoсть ветра над акватoриями крупных рек и oзёр, а также на вершинах хoлмoв на 2-5 м/с выше, чем в oбычных услoвиях.
Атмoсфернoе давление в разных тoчках местнoсти мoжет значительнo oтличаться oт давления на метеoстанции, в зависимoсти oт услoвий рельефа (при пoдъёме на 10 м давление пoнижается примернo на 1 мм рт.ст.).